Temp
71 73 76 74 75 58 61 66 60 64 65 66 55 53 54 53 49 51 48 57 55 57 67 69 70 75 76 78 80 82 82 82 80 79 81 81 82 82 82 82 82 82 82 82 83 83 83 83 82 82 81 81 81 80 79 78 79 79 79 79 79 79 79
74 77 75 76 78 69 62 61 65 67 70 71 61 49 52 52 46 48 53 56 53 58 52 60 68 68 73 74 77 81 81 81 77 79 80 81 82 83 83 83 83 83 83 82 83 84 84 84 83 82 82 82 82 81 81 79 79 78 79 79 79 79 79
72 77 74 69 74 78 74 67 71 69 51 56 52 51 49 45 46 45 44 51 54 56 55 62 63 67 71 71 73 76 78 79 78 79 80 81 83 83 83 83 82 82 83 83 83 84 85 85 84 84 83 83 82 82 82 81 80 80 80 80 80 80 80
72 72 69 60 67 72 75 71 68 69 61 61 54 56 45 51 44 45 46 50 57 59 60 62 69 67 71 73 72 74 78 79 80 80 81 81 81 82 83 84 84 84 84 84 84 85 85 85 84 84 84 84 83 83 82 81 82 81 80 80 80 79 80
69 60 63 64 67 65 66 64 65 63 64 62 68 57 60 52 43 40 45 46 56 55 61 67 69 69 70 73 73 75 78 80 81 82 83 82 82 82 83 84 84 84 85 85 85 86 86 86 86 85 85 84 84 84 82 82 80 80 80 80 80 80 80
59 61 69 73 72 73 69 68 65 68 63 54 56 53 63 54 51 42 43 50 56 51 67 73 71 70 71 71 74 75 77 80 81 83 84 84 83 83 84 85 86 86 86 86 86 86 86 86 85 84 85 85 84 83 83 83 82 81 81 80 80 80 80
63 67 72 76 78 76 75 72 68 68 62 55 54 44 50 54 59 54 50 48 58 62 68 72 74 73 74 74 74 76 77 79 81 83 85 85 85 84 85 86 87 87 86 86 85 84 84 84 84 84 84 84 84 84 84 83 82 82 82 82 81 80 80
64 68 70 69 71 75 71 72 72 69 64 65 64 62 51 56 49 54 50 51 55 64 67 69 74 72 74 72 72 75 78 78 81 82 84 84 83 84 86 87 87 87 87 86 84 83 82 83 83 83 84 84 85 84 84 84 83 83 83 83 82 81 80
54 59 61 64 67 68 66 67 71 72 71 69 65 56 48 57 54 55 50 50 56 60 59 67 70 72 77 73 71 74 76 77 79 81 81 82 82 83 84 84 85 85 85 83 82 82 82 82 83 83 83 84 84 84 84 84 84 84 84 83 83 81 81
41 43 45 48 54 60 63 66 69 72 72 68 61 62 52 52 48 54 52 53 44 51 59 67 70 71 70 70 70 73 76 77 79 80 81 81 81 81 82 83 84 83 83 83 81 81 81 82 83 82 82 84 84 84 84 85 84 84 84 84 83 82 81
44 46 47 54 55 60 63 67 67 69 72 74 70 63 54 54 41 52 53 51 52 64 69 65 70 69 73 77 68 69 72 73 75 76 79 81 81 82 83 83 85 83 80 80 81 81 82 83 83 83 83 83 84 83 84 85 85 84 84 83 82 82 81
50 54 52 58 59 61 67 66 67 69 69 70 69 63 60 52 50 53 49 44 58 60 60 63 65 68 69 72 75 69 68 70 74 76 75 79 80 82 83 84 83 81 80 80 80 81 82 82 83 83 83 84 83 83 83 84 85 84 84 83 82 81 81
53 55 56 58 59 60 65 68 68 68 68 68 66 66 59 59 62 60 53 49 57 57 60 66 67 69 71 74 75 73 72 71 69 71 75 76 79 81 82 82 82 81 80 79 80 81 81 82 82 82 82 83 83 83 84 84 85 84 84 83 82 81 80
51 54 55 58 58 60 63 66 69 70 70 68 69 69 65 65 63 64 59 53 62 64 67 65 68 67 70 71 67 65 68 73 70 72 74 78 80 81 81 81 82 80 81 81 80 81 80 81 81 82 82 82 83 83 84 84 84 85 83 82 81 81 80
47 52 56 58 57 57 57 64 67 70 71 71 71 71 68 65 66 67 57 53 58 62 65 74 74 73 68 67 68 72 72 70 69 70 73 76 78 80 81 81 81 81 81 81 80 79 79 80 81 82 82 82 83 84 84 85 84 85 84 82 81 81 80
42 51 53 54 56 57 56 58 63 65 68 66 69 67 70 62 60 61 56 53 56 60 64 63 65 65 66 68 66 65 68 70 68 69 72 75 76 78 80 80 80 79 80 80 79 79 81 81 82 82 82 82 82 83 84 84 85 85 83 82 81 81 81
38 48 52 52 54 54 54 58 64 67 67 69 71 71 72 71 70 63 61 65 65 68 69 65 66 68 67 64 62 62 63 63 65 68 69 72 75 77 79 80 79 80 81 81 81 82 82 82 82 83 84 83 82 83 83 84 85 84 83 83 82 81 81
39 47 50 52 47 40 51 67 71 70 68 67 65 67 68 69 70 70 73 74 72 69 63 65 67 71 68 63 65 65 66 63 63 65 67 70 72 73 75 77 80 80 80 81 82 83 83 83 84 85 85 84 84 85 85 84 84 83 83 83 82 81 80
38 46 47 43 36 42 59 62 70 74 74 68 67 65 64 67 64 64 65 65 67 66 68 68 67 63 64 65 64 65 65 65 66 67 69 67 68 70 70 71 76 78 79 80 80 80 82 83 84 84 84 85 84 84 84 83 83 82 83 82 81 81 80
43 41 40 33 35 50 60 63 63 62 68 68 65 60 60 59 59 59 61 61 64 61 60 61 63 66 65 65 65 65 67 66 65 67 69 69 70 74 73 72 72 72 77 80 80 81 83 83 83 85 85 86 85 85 85 84 83 83 82 81 81 81 80
35 39 39 42 52 53 55 55 55 55 51 54 60 59 56 60 58 58 61 62 59 60 62 66 65 64 66 66 65 68 68 67 67 67 67 70 71 70 70 74 76 73 75 75 78 80 81 82 83 84 86 86 85 85 84 83 82 82 81 81 81 80 80
46 38 36 38 39 39 44 52 58 62 62 60 57 55 56 57 59 59 58 61 62 63 65 66 66 62 68 61 63 67 69 69 68 68 68 70 69 69 70 69 72 74 76 76 77 77 79 81 84 85 85 84 83 81 82 82 81 81 81 81 81 81 81
45 39 35 35 36 40 47 51 58 60 61 61 58 56 54 56 59 59 60 60 59 64 67 65 61 61 57 55 56 65 66 67 68 66 66 68 69 69 69 70 68 69 72 76 77 76 77 79 82 83 83 83 81 81 81 81 81 80 81 82 82 81 82
43 41 37 34 43 44 50 55 59 60 61 61 59 51 47 55 60 60 60 59 59 59 60 64 61 64 61 58 59 64 66 66 66 65 64 65 66 67 68 69 69 69 69 73 75 78 78 79 78 78 80 82 81 81 80 81 81 81 81 82 83 84 84
43 43 38 40 44 53 56 57 59 60 62 57 55 46 51 58 59 60 59 59 59 58 61 62 60 57 59 60 62 65 65 65 65 65 66 65 66 65 67 68 70 69 68 71 75 78 79 77 77 78 77 77 78 79 80 79 80 82 84 84 83 83 84
38 39 38 37 44 52 57 60 59 61 56 48 44 53 59 60 59 60 60 61 61 62 62 62 61 61 62 63 63 64 64 64 64 65 66 66 67 67 67 69 68 68 68 67 68 68 68 69 76 78 78 77 77 76 77 79 82 85 84 84 84 83 83
41 40 38 37 33 46 59 57 58 61 49 51 57 59 59 61 59 59 59 61 60 62 60 60 60 61 61 61 62 63 63 64 64 64 65 65 65 64 65 66 67 68 66 67 67 67 69 69 72 77 79 78 76 75 76 79 80 79 78 79 80 81 80
37 38 36 36 47 52 59 56 49 54 55 59 60 58 57 59 58 58 58 59 59 61 60 59 59 59 59 59 60 61 61 63 65 66 65 65 65 65 67 66 65 66 66 67 68 68 68 68 69 73 78 76 76 75 77 75 71 74 76 77 78 78 78
46 42 45 52 54 55 58 57 57 58 60 61 60 59 58 56 57 58 58 58 59 60 60 59 59 58 58 58 59 59 59 60 61 62 64 65 64 65 65 65 66 66 66 67 68 68 68 67 67 68 71 74 73 74 73 68 71 74 77 77 77 77 77
54 56 54 56 56 56 56 60 60 58 59 62 61 59 57 58 58 58 57 57 59 59 59 59 57 58 57 58 58 59 59 60 60 62 62 63 64 65 66 66 66 66 67 67 67 67 67 67 67 67 67 68 70 72 71 71 74 75 75 74 74 74 74
47 41 54 55 55 56 56 57 59 60 60 59 59 57 57 57 59 59 59 58 59 59 59 58 57 57 57 58 58 58 59 60 61 63 63 63 64 65 65 66 66 66 66 67 67 66 67 67 67 68 66 67 67 69 70 72 74 75 75 74 73 72 72
44 46 53 54 57 56 57 56 55 56 57 59 59 59 59 59 59 59 59 60 58 59 58 57 58 57 58 58 58 59 59 59 61 62 62 62 63 65 66 67 67 67 67 67 67 67 66 67 68 67 67 67 67 67 68 69 70 73 74 74 74 74 74
50 53 53 54 55 57 57 58 58 57 57 57 59 60 59 60 59 60 60 60 59 58 57 57 58 58 57 57 58 59 58 59 59 60 61 61 62 63 65 66 67 67 67 67 67 67 67 68 68 67 67 67 67 67 68 69 69 69 69 70 73 74 73
45 46 48 52 48 48 53 55 57 58 59 60 59 59 59 59 58 58 59 59 60 60 59 58 58 57 57 57 58 59 59 59 59 60 61 62 63 63 64 66 66 67 68 68 67 67 67 67 67 68 68 68 68 69 68 68 68 68 69 68 68 68 69
44 52 53 54 54 53 53 55 57 59 60 59 58 58 58 59 59 59 59 58 58 58 58 59 59 58 58 58 59 59 59 59 60 60 61 62 63 63 64 65 65 66 66 67 67 66 66 67 67 68 68 68 68 69 69 69 68 68 68 68 68 67 67
52 54 54 55 54 51 54 57 58 57 58 59 59 59 59 59 58 59 59 58 58 57 58 58 59 59 59 59 60 59 59 60 60 61 62 63 62 63 64 64 65 65 66 66 66 65 66 66 66 67 68 69 68 70 70 69 69 68 68 66 65 65 65
50 55 56 56 56 56 56 57 58 58 59 60 58 59 59 59 59 60 58 58 58 59 58 58 58 59 60 60 60 59 59 60 61 62 62 63 63 63 64 64 64 65 65 66 66 66 66 66 65 66 66 68 68 69 69 70 70 69 68 67 67 66 66
MSLP
1001.62 1001.70 1001.62 1002.42 1002.34 1008.66 1005.34 1005.90 1007.98 1005.70 1004.22 1006.18 1008.34 1008.50 1008.34 1008.42 1009.34 1009.46 1006.14 1005.30 1004.94 1002.66 1001.10 1000.14 1000.34 1000.30 1000.26 1000.06 1000.02 1000.02 1000.06 999.98 1000.34 1001.10 1001.18 1001.26 1001.30 1001.42 1001.62 1001.78 1001.86 1001.94 1002.26 1002.58 1002.66 1002.86 1003.18 1003.50 1003.94 1004.26 1004.38 1004.54 1004.90 1005.46 1006.10 1006.62 1006.94 1007.26 1007.54 1007.70 1007.86 1008.10 1008.42
1001.18 1000.22 1000.78 1001.30 1001.38 1002.02 1004.66 1007.02 1004.86 1003.54 1002.82 1004.10 1007.38 1010.86 1008.74 1009.26 1010.98 1009.06 1006.42 1006.90 1005.70 1005.10 1006.02 1000.78 1000.98 1001.42 1000.90 1000.78 1000.42 1000.02 999.86 999.86 1000.94 1000.74 1000.62 1000.58 1000.58 1000.46 1000.34 1000.46 1000.78 1001.22 1001.54 1001.86 1002.10 1002.22 1002.38 1002.66 1002.98 1003.38 1003.62 1003.78 1004.22 1004.74 1005.22 1005.90 1006.46 1006.94 1006.98 1007.22 1007.54 1007.74 1008.14
1000.62 1000.10 1001.38 1002.78 1001.50 1000.50 1002.58 1003.62 1001.46 1005.14 1009.14 1009.38 1006.82 1008.22 1011.22 1011.26 1010.82 1009.46 1007.42 1006.38 1005.42 1004.34 1004.38 1001.78 1002.14 1001.90 1000.94 1000.74 1000.54 1000.46 1000.38 1000.22 1000.54 1000.42 1000.18 999.94 999.78 1000.02 1000.38 1000.66 1000.94 1001.18 1001.30 1001.38 1001.50 1001.58 1001.58 1001.86 1002.14 1002.34 1002.66 1003.30 1003.90 1004.42 1004.74 1005.14 1005.70 1005.78 1006.10 1006.50 1006.86 1007.14 1007.46
1000.54 1000.70 1002.18 1006.18 1004.02 1001.66 1000.86 1000.90 1002.86 1001.54 1003.58 1005.90 1008.18 1006.58 1006.82 1007.50 1009.94 1009.66 1008.54 1007.02 1005.98 1002.66 1002.14 1000.90 1000.42 1000.70 1000.26 1000.02 1000.26 1000.50 999.82 999.62 999.62 999.58 999.58 999.66 999.74 999.66 999.66 999.86 1000.10 1000.22 1000.34 1000.42 1000.62 1000.90 1001.30 1001.58 1001.90 1002.10 1002.62 1003.22 1003.78 1003.90 1004.38 1004.82 1005.10 1005.58 1006.14 1006.50 1006.58 1006.86 1006.94
1000.70 1003.86 1002.34 1003.66 1003.26 1004.10 1003.82 1004.02 1003.94 1003.70 1002.98 1002.22 1002.98 1004.90 1005.22 1006.82 1008.46 1008.98 1008.86 1008.94 1004.10 1001.46 999.50 999.10 998.78 998.70 999.02 999.22 999.42 999.34 999.06 998.78 998.66 998.54 998.58 998.70 998.70 998.86 998.90 998.98 999.22 999.42 999.62 999.70 999.86 1000.02 1000.26 1000.46 1000.78 1001.46 1002.30 1002.86 1002.98 1003.50 1004.14 1004.38 1004.98 1005.38 1005.78 1005.78 1006.10 1006.34 1006.66
1003.26 1002.02 1000.10 1000.10 1000.90 1001.02 1001.94 1002.78 1003.42 1002.66 1003.98 1005.54 1007.18 1007.46 1003.66 1004.42 1006.26 1007.30 1007.90 1007.26 1002.62 999.98 999.46 997.82 997.78 997.22 997.14 998.26 998.22 998.70 998.46 998.06 997.82 997.74 997.62 997.58 997.98 997.86 997.90 998.02 998.18 998.54 998.74 998.86 999.10 999.38 999.74 1000.42 1001.14 1001.78 1001.78 1002.06 1002.74 1003.22 1003.34 1003.82 1004.38 1004.86 1005.06 1005.30 1005.50 1005.78 1006.22
1002.14 1000.62 998.90 998.22 998.26 999.14 999.86 1000.90 1002.26 1001.46 1002.30 1003.14 1004.86 1008.26 1005.70 1004.26 1003.78 1003.70 1004.34 1005.90 1002.66 998.30 998.38 997.30 996.74 996.54 996.34 996.62 997.62 997.82 997.78 997.54 997.30 997.10 996.78 996.62 996.62 996.98 997.22 997.34 997.42 997.54 997.82 998.10 998.46 999.02 999.62 1000.06 1000.34 1000.66 1001.22 1001.78 1002.06 1002.38 1002.90 1003.38 1003.86 1004.06 1004.06 1004.26 1004.66 1005.26 1005.82
1000.46 999.58 998.90 998.66 998.54 999.02 1000.58 1000.26 1000.06 1001.06 1002.66 1002.10 1002.58 1002.86 1003.06 1004.38 1004.42 1005.30 1005.70 1005.74 1002.50 998.54 997.90 997.46 996.14 995.66 995.58 996.42 997.50 997.26 997.18 997.14 996.98 996.82 996.62 996.62 996.74 996.58 996.50 996.54 996.74 996.94 997.26 997.74 998.42 999.10 999.58 999.82 1000.18 1000.58 1000.74 1000.90 1001.34 1001.86 1002.30 1002.70 1003.18 1003.22 1003.54 1003.86 1004.38 1004.94 1005.42
1003.02 1002.14 1000.94 1000.62 999.50 999.74 1000.54 1000.82 1000.10 999.74 1000.18 1000.58 1000.86 1001.50 1004.06 1003.82 1003.50 1003.66 1005.46 1006.26 1002.94 998.30 998.06 997.78 996.50 995.86 995.70 996.30 996.78 996.82 996.98 996.82 996.58 996.42 996.46 996.50 996.50 996.46 996.54 996.66 996.70 996.78 997.22 997.94 998.38 998.54 998.90 999.14 999.38 999.74 1000.14 1000.58 1000.94 1001.30 1001.66 1002.10 1002.26 1002.50 1002.98 1003.34 1004.02 1004.50 1005.02
1007.62 1007.06 1006.14 1005.02 1004.02 1002.26 1000.74 999.62 999.58 999.42 999.86 1000.78 1002.46 1003.62 1003.86 1004.70 1003.30 1003.06 1003.82 1003.34 1000.50 998.62 997.54 997.94 997.34 996.66 996.70 996.22 996.10 996.34 996.06 995.82 996.10 996.14 996.02 995.98 996.14 996.38 996.34 996.34 996.46 996.78 996.86 997.02 997.50 997.94 998.34 998.70 998.98 999.34 999.66 999.98 1000.30 1000.62 1000.86 1000.94 1001.58 1002.18 1002.54 1002.90 1003.38 1003.98 1004.54
1006.70 1006.10 1006.10 1003.58 1000.62 1000.14 1001.42 999.82 999.70 999.66 998.94 998.74 999.94 1000.86 1002.98 1003.82 1003.86 1003.06 1001.54 1001.06 1000.74 999.26 997.94 998.14 997.66 996.46 996.34 995.58 996.38 996.30 996.34 996.22 995.86 995.54 995.42 995.38 995.54 995.58 995.70 995.70 995.66 995.82 996.54 996.98 997.06 997.30 997.58 997.86 998.26 998.70 999.10 999.50 999.82 1000.14 1000.46 1000.62 1000.90 1001.38 1001.82 1002.38 1002.86 1003.50 1003.94
1006.38 1005.90 1005.70 1004.02 1004.18 1002.50 999.34 999.90 999.74 999.06 999.26 999.18 999.98 1001.26 1001.42 1000.58 1002.26 1003.50 1001.26 1000.02 1000.26 999.58 998.10 997.42 997.06 996.66 996.02 995.30 994.90 996.14 996.02 995.78 995.82 995.46 995.30 995.22 995.18 995.14 995.30 995.62 995.90 996.26 996.26 996.26 996.58 996.90 997.18 997.54 997.74 998.14 998.50 998.82 999.22 999.62 1000.06 1000.30 1000.62 1001.10 1001.50 1001.98 1002.46 1002.90 1003.34
1006.30 1005.70 1004.78 1004.02 1003.34 1002.42 1000.22 998.74 998.62 999.10 998.74 999.18 1000.06 999.10 999.94 999.26 1001.22 1001.14 1000.38 999.82 1000.30 999.02 997.38 996.10 995.94 995.22 994.86 994.78 994.98 995.22 995.42 995.46 995.46 995.38 995.42 995.38 995.22 994.90 994.98 994.98 995.14 995.58 995.90 996.02 996.14 996.34 996.62 996.94 997.50 997.82 998.26 998.58 998.90 999.30 999.54 999.82 1000.10 1000.30 1000.50 1001.26 1001.90 1002.42 1002.90
1006.26 1005.22 1004.66 1003.38 1003.14 1001.78 1000.38 999.10 997.98 997.58 997.94 998.18 998.10 998.30 998.94 998.70 998.58 998.50 998.98 999.10 998.94 997.58 996.34 995.90 995.14 994.90 994.98 995.14 995.54 994.98 994.62 994.38 994.74 994.98 994.86 994.66 994.50 994.42 994.50 994.50 994.62 994.90 995.14 995.38 995.54 995.74 996.18 996.66 997.02 997.42 997.82 998.14 998.42 998.74 999.10 999.34 999.66 999.74 1000.38 1001.02 1001.46 1001.90 1002.26
1006.70 1005.22 1003.94 1003.10 1003.26 1003.10 1002.34 999.38 997.98 997.14 996.74 996.78 996.58 997.06 997.74 998.58 998.54 998.18 999.06 999.90 999.30 997.54 995.58 994.38 993.66 993.62 995.18 996.02 995.62 994.98 994.10 994.02 994.58 994.94 994.78 994.42 994.26 993.98 993.90 993.94 994.18 994.26 994.46 994.82 995.30 995.78 996.06 996.26 996.42 996.70 996.94 997.22 997.54 997.94 998.26 998.66 999.06 999.26 999.78 1000.50 1001.02 1001.38 1001.50
1007.30 1005.06 1004.62 1004.02 1002.98 1002.46 1002.06 1000.62 998.70 997.62 996.82 997.30 996.42 997.22 996.62 998.66 999.34 998.78 999.26 1000.26 999.74 997.18 995.78 996.10 995.70 994.78 995.02 995.26 994.90 994.82 994.38 993.86 994.42 994.62 994.50 994.42 994.02 993.78 993.62 993.62 993.74 994.06 994.22 994.50 995.02 995.34 995.42 995.54 995.78 996.14 996.54 996.86 997.34 997.74 997.82 998.10 998.26 998.66 999.38 999.94 1000.42 1000.62 1000.66
1008.18 1005.82 1005.30 1004.94 1003.78 1002.58 1001.26 999.26 997.14 996.62 996.66 995.70 995.38 995.26 995.26 995.78 996.54 998.90 999.50 997.94 996.62 995.26 994.78 996.26 996.10 995.34 994.78 995.50 995.14 994.54 994.46 994.94 994.90 994.62 994.90 994.90 994.18 993.38 993.06 993.14 993.38 993.58 993.66 993.66 993.86 994.10 994.42 994.86 995.22 995.30 995.50 996.26 996.82 996.86 997.22 997.14 997.66 998.54 999.06 999.42 999.82 1000.18 1000.50
1008.06 1006.38 1005.62 1004.62 1004.94 1004.66 1000.02 994.66 994.26 995.58 996.30 996.26 996.90 996.50 995.86 995.34 995.46 995.74 994.86 994.82 994.46 994.74 995.90 996.22 995.46 994.78 994.54 994.94 995.54 995.94 995.54 994.46 994.42 994.70 994.70 994.26 994.06 994.06 993.70 993.18 992.94 992.78 992.86 993.02 993.14 993.14 993.34 993.54 993.78 994.14 994.70 995.30 995.50 995.70 996.14 996.82 997.70 998.14 998.66 999.06 999.34 999.66 1000.06
1008.34 1006.54 1005.94 1005.62 1005.54 1003.30 997.18 995.78 993.38 993.18 993.90 995.06 995.70 995.06 994.70 994.30 994.58 995.02 995.50 995.02 994.62 994.54 994.86 994.70 994.26 994.62 995.58 995.90 996.10 995.78 995.62 995.30 994.66 994.10 993.74 993.98 994.10 993.82 993.50 993.50 993.34 993.06 992.78 992.82 992.94 993.34 993.54 993.54 993.78 994.30 994.86 994.98 995.38 996.02 996.42 997.06 997.26 997.66 997.94 998.26 998.62 998.90 999.50
1007.10 1007.26 1006.58 1007.54 1003.42 998.90 998.02 997.42 997.10 996.70 994.26 994.46 995.22 996.50 995.62 995.94 995.58 995.26 995.18 994.42 993.94 994.02 995.14 995.26 995.14 994.98 995.74 995.54 995.42 995.46 995.42 995.34 995.02 994.38 994.18 993.82 993.34 992.98 992.78 993.02 993.14 993.22 993.18 992.66 992.66 992.82 992.54 992.98 993.42 993.70 994.10 994.30 995.10 995.62 995.78 996.34 996.70 996.98 997.34 997.82 998.14 998.54 999.14
1008.54 1006.58 1006.14 1005.58 1002.14 1000.86 998.54 997.90 999.22 999.94 1000.06 999.82 997.98 997.38 996.10 995.34 995.38 995.14 993.94 993.62 994.06 994.46 994.66 994.74 995.78 995.46 995.18 995.02 995.18 994.94 995.38 995.22 994.98 995.02 994.74 994.50 994.30 993.98 992.90 992.18 992.02 992.34 992.58 992.98 992.98 992.66 992.70 992.94 993.22 993.46 993.46 994.02 994.62 995.14 995.78 996.14 996.54 996.86 997.26 997.74 997.94 998.22 998.58
1005.82 1006.66 1006.50 1005.14 1004.02 1003.86 999.50 1000.26 999.42 999.22 999.50 999.58 999.66 1000.34 996.50 995.26 995.46 995.66 994.94 993.94 993.98 994.42 995.26 995.34 995.42 995.26 995.02 996.70 996.26 995.26 995.38 995.18 995.14 994.78 994.82 994.58 994.38 994.30 993.82 992.86 992.38 991.98 991.94 992.14 992.22 992.82 993.50 993.18 992.74 992.66 993.10 993.78 994.50 995.22 995.58 995.82 996.30 996.70 997.10 997.22 997.18 997.50 997.82
1005.54 1005.78 1006.22 1005.74 1005.46 1001.46 1000.94 1000.74 999.46 998.70 998.62 998.78 998.62 998.02 998.30 995.70 995.58 995.18 994.82 995.02 995.18 994.66 994.86 995.58 995.70 995.26 996.86 997.86 996.66 995.86 995.98 995.50 995.50 995.62 995.22 995.06 994.70 994.38 994.26 994.26 993.62 992.78 992.34 991.98 992.18 992.58 992.98 993.62 993.18 992.82 992.98 993.50 994.30 994.90 995.14 995.50 995.82 996.34 996.58 996.46 996.70 997.02 997.06
1005.62 1005.66 1006.10 1006.38 1003.66 1001.70 1000.54 1000.18 999.22 998.70 998.14 998.34 997.62 999.34 998.54 995.90 995.54 995.46 995.06 995.38 995.54 995.18 994.74 994.94 995.42 995.02 996.94 997.38 996.62 996.54 996.10 996.02 995.78 995.94 995.54 995.10 994.70 994.34 994.14 993.82 993.78 993.50 992.62 992.06 992.26 992.38 992.82 992.82 992.90 993.58 993.62 993.62 993.94 994.34 994.78 995.10 995.70 995.98 995.78 995.66 995.66 995.82 996.06
1005.54 1005.50 1005.78 1004.54 1003.26 1000.46 1000.46 1000.14 999.54 998.46 997.74 998.02 998.14 999.26 996.70 995.70 995.50 995.58 995.46 995.54 995.46 995.02 994.70 994.38 995.26 997.54 996.66 996.90 997.06 996.58 996.34 996.10 995.94 995.66 995.50 995.34 994.98 994.62 994.10 994.10 993.82 993.46 993.02 992.54 992.26 992.26 992.22 992.42 992.86 993.06 993.58 994.34 994.62 994.42 994.46 994.94 995.14 994.70 994.38 994.54 994.98 995.26 995.50
1005.06 1005.38 1005.54 1005.42 1003.58 1001.10 1000.66 999.70 999.82 998.54 998.58 998.58 998.18 998.38 997.66 996.38 996.06 995.86 995.70 995.66 995.54 995.10 995.22 995.58 996.46 996.94 996.86 996.90 997.02 997.02 996.82 996.74 996.58 996.14 995.66 995.10 994.46 994.02 993.82 993.78 993.98 994.10 993.82 993.10 992.86 992.82 992.90 992.86 992.54 992.74 993.34 994.14 994.34 994.58 994.86 994.90 994.06 993.30 993.54 993.94 994.22 994.70 995.30
1005.82 1005.86 1005.58 1005.66 1005.86 1000.42 1000.30 1000.54 999.42 999.18 1000.58 1000.54 999.78 998.54 997.34 997.02 996.66 996.38 996.02 995.74 995.70 995.22 996.02 996.46 996.70 996.94 997.22 997.22 997.18 997.02 996.82 996.66 996.54 996.34 996.02 995.82 995.74 995.38 994.70 993.98 994.10 994.38 994.30 993.90 993.66 993.58 993.46 993.14 992.86 992.78 993.06 993.62 994.22 994.54 994.82 994.10 993.62 993.82 994.10 994.38 994.78 995.06 995.42
1004.86 1004.82 1005.74 1005.10 1002.10 1001.82 1000.94 1001.46 1002.34 1001.50 1001.34 1000.18 999.22 998.70 997.90 997.38 997.50 997.46 997.10 996.54 996.18 995.90 995.86 996.54 997.02 997.26 997.26 997.26 997.22 997.02 997.02 996.98 996.82 996.50 996.30 996.10 995.86 995.70 995.50 995.38 995.18 994.94 994.98 994.86 994.42 993.94 993.62 993.54 993.46 993.02 992.94 993.58 993.78 993.98 993.90 993.50 993.74 993.82 993.90 994.06 994.38 994.94 995.34
1002.38 1003.42 1002.70 1001.42 1001.58 1001.74 1001.38 1001.42 1001.54 1001.18 1000.26 999.58 999.14 998.82 998.98 999.02 998.82 998.18 998.02 997.50 996.90 996.58 996.46 996.78 996.94 997.30 997.54 997.58 997.46 997.26 997.34 997.14 996.98 996.82 996.78 996.62 996.46 996.30 996.10 995.90 995.54 995.42 995.50 995.34 995.18 994.74 994.22 993.94 993.70 993.78 993.54 993.22 993.46 993.78 993.34 993.46 993.54 993.58 993.66 993.86 994.18 994.50 994.78
1001.58 1001.22 1001.14 1001.18 1001.50 1001.94 1001.74 1000.90 1000.66 1000.58 1000.02 999.14 999.02 998.94 999.06 999.18 999.14 998.62 998.30 997.90 997.46 997.10 996.78 996.78 997.38 997.54 997.78 997.74 997.70 997.54 997.42 997.34 997.26 997.02 996.78 996.54 996.42 996.30 996.14 996.06 995.98 995.98 995.74 995.58 995.42 995.10 994.62 994.62 994.38 994.18 994.06 994.18 994.02 993.30 992.94 993.02 992.94 993.02 993.22 993.62 993.90 994.06 994.18
1002.26 1003.38 1001.58 1001.74 1001.94 1002.10 1001.78 1001.30 1000.34 999.78 999.70 999.66 999.22 999.02 998.90 999.62 999.66 999.30 998.58 997.94 997.66 997.50 997.30 997.30 997.54 997.78 997.74 997.78 997.82 997.78 997.66 997.54 997.46 997.30 997.14 996.98 996.74 996.62 996.50 996.38 996.30 996.26 996.26 996.26 996.18 995.94 995.34 995.10 994.98 994.70 994.66 994.46 994.38 994.14 994.30 993.70 992.94 992.58 992.82 992.94 993.30 993.62 993.90
1002.18 1001.82 1001.66 1001.46 1001.30 1001.62 1001.58 1001.06 1000.90 1000.82 1000.30 999.74 999.10 998.82 998.66 999.34 999.74 999.94 999.74 998.66 997.90 997.50 997.58 997.70 997.70 997.94 997.98 997.90 997.98 997.94 997.90 997.90 997.78 997.62 997.50 997.34 997.06 996.82 996.58 996.46 996.34 996.34 996.42 996.50 996.54 996.46 996.34 995.90 995.42 995.30 995.18 994.94 994.70 994.46 994.26 994.14 994.10 993.62 992.94 992.82 992.86 992.90 992.90
1001.38 1001.54 1001.50 1001.38 1001.42 1001.54 1001.54 1001.06 1000.98 1001.10 1000.86 1000.54 999.98 999.26 998.98 999.50 1000.30 1000.54 1000.34 999.62 998.50 997.86 997.90 997.74 997.78 997.94 998.22 998.14 998.14 998.10 998.06 997.94 997.82 997.74 997.62 997.42 997.30 997.14 996.90 996.66 996.42 996.46 996.42 996.46 996.46 996.54 996.58 996.30 996.10 995.86 995.58 995.38 995.14 994.98 994.74 994.54 994.42 994.38 994.10 993.54 993.06 992.78 992.62
1001.74 1001.78 1001.50 1001.42 1002.34 1002.78 1002.02 1001.46 1001.26 1001.22 1000.94 1000.54 1000.26 999.46 999.54 1000.26 1001.10 1001.34 1001.18 1000.02 998.74 998.26 998.10 998.06 998.10 998.38 998.50 998.38 998.14 998.18 998.18 998.06 997.86 997.58 997.38 997.22 997.14 997.06 996.94 996.74 996.70 996.58 996.54 996.54 996.54 996.58 996.46 996.30 996.26 996.22 996.06 995.82 995.50 995.14 994.98 994.86 994.78 994.90 994.70 994.42 994.06 993.74 993.54
1001.26 1000.58 1000.30 1000.70 1000.58 1000.90 1001.30 1001.30 1001.50 1001.30 1000.94 1000.42 1000.10 1000.06 1000.22 1000.86 1001.62 1001.70 1001.22 1000.26 999.42 998.90 998.62 998.34 998.30 998.42 998.46 998.42 998.14 998.14 998.18 998.14 997.98 997.74 997.58 997.50 997.38 997.30 997.06 996.98 996.86 996.90 996.82 996.70 996.78 996.78 996.66 996.42 996.30 996.26 996.22 996.06 995.82 995.54 995.34 995.18 995.14 995.14 995.06 995.14 994.94 994.62 994.42
999.98 1000.10 1000.30 1000.38 1000.70 1001.18 1001.22 1001.18 1001.18 1000.86 1000.38 1000.42 1000.38 1000.54 1000.82 1001.30 1001.74 1001.54 1001.06 1000.18 999.54 999.26 998.90 998.66 998.38 998.26 998.26 998.22 998.06 998.18 998.18 998.06 997.94 997.90 997.82 997.70 997.70 997.58 997.50 997.50 997.46 997.30 997.10 996.98 996.90 996.82 996.62 996.42 996.42 996.30 996.30 996.10 995.98 995.78 995.58 995.42 995.34 995.38 995.38 995.42 995.42 995.34 995.10
1000.58 1000.14 1000.18 1000.18 1000.26 1000.38 1000.58 1000.82 1000.86 1000.50 1000.10 1000.18 1000.74 1001.06 1001.30 1001.54 1001.58 1001.30 1000.86 1000.22 999.54 998.98 998.74 998.58 998.34 998.06 997.90 998.02 997.98 998.10 998.26 998.22 998.14 998.14 998.10 997.98 997.86 997.86 997.90 997.86 997.82 997.70 997.58 997.42 997.18 996.98 996.74 996.54 996.50 996.46 996.38 996.18 995.94 995.78 995.62 995.50 995.46 995.62 995.74 995.78 995.74 995.66 995.50
Wind_Speed
8 13 9 8 11 10 4 9 13 13 7 7 5 5 3 0 2 8 2 4 6 7 5 5 6 10 14 13 16 17 18 17 14 14 15 17 18 18 18 19 19 21 19 18 19 19 19 19 18 19 20 20 21 19 18 20 20 18 19 20 20 18 18
13 11 8 10 13 6 5 9 10 3 2 4 7 8 4 7 9 6 3 8 4 3 9 2 5 6 10 11 16 18 18 15 10 14 15 17 19 20 21 22 20 20 20 21 20 19 20 20 21 21 22 20 19 19 20 21 20 21 20 20 19 18 18
8 8 7 5 6 11 14 9 8 10 5 11 4 2 12 8 10 3 2 2 6 10 6 2 5 7 11 9 10 12 15 14 13 13 15 17 18 17 17 18 17 17 18 19 20 21 22 21 21 22 21 20 18 17 18 20 22 23 22 19 18 16 17
6 6 9 14 12 8 8 5 7 5 6 9 8 9 2 4 6 3 6 2 12 6 7 8 10 10 11 12 11 12 16 15 14 14 15 16 17 18 18 18 18 20 20 21 22 22 21 21 20 19 18 16 18 19 19 18 18 17 16 18 18 18 18
6 7 6 12 14 14 10 7 9 4 4 1 7 1 8 7 4 4 3 6 10 6 7 10 11 12 12 12 13 13 15 15 15 16 16 16 18 18 18 18 19 20 21 21 21 21 21 21 20 18 16 19 20 17 18 19 19 19 19 20 18 17 15
9 4 8 13 15 15 12 12 13 12 9 4 11 11 2 3 5 7 5 17 7 4 6 10 10 10 10 11 12 12 13 15 17 16 17 17 17 19 19 19 19 20 21 21 20 19 18 17 15 15 18 18 17 18 19 18 18 18 20 19 18 18 16
8 9 10 12 16 14 14 11 11 9 5 5 5 6 8 2 7 4 4 4 13 7 9 10 10 9 10 10 11 12 12 14 15 16 18 18 18 18 19 19 19 20 20 20 20 20 20 19 20 20 18 17 18 20 19 17 19 20 20 20 18 16 16
5 4 4 5 7 11 12 12 9 10 11 9 10 10 6 6 1 3 1 10 5 3 6 9 10 10 10 7 7 11 10 8 10 14 16 15 14 16 16 17 17 17 16 16 15 15 17 17 16 17 18 19 18 17 18 18 21 22 20 18 16 16 16
6 6 4 6 1 3 6 8 11 13 9 12 7 3 2 6 8 8 7 18 2 2 2 5 6 7 9 9 8 9 10 8 10 12 12 11 13 14 15 16 17 16 15 14 14 16 17 18 17 17 18 18 18 18 18 19 20 20 18 16 16 16 16
11 9 10 9 9 8 1 3 8 14 18 16 6 13 3 10 4 8 7 8 2 6 1 3 8 8 7 7 7 7 9 10 11 10 12 13 13 14 15 16 16 16 16 16 15 16 16 16 17 16 17 18 18 18 20 20 19 18 18 16 17 16 16
6 4 5 9 2 5 14 13 9 12 18 20 16 8 7 14 3 10 9 4 2 1 3 5 9 6 9 8 5 8 9 10 10 10 11 13 14 16 18 19 18 16 11 14 16 17 18 18 18 16 17 18 18 18 19 19 18 18 18 17 17 17 17
6 8 11 16 15 16 12 14 15 12 13 16 19 17 15 8 7 15 4 6 6 7 5 6 8 8 6 8 9 7 6 9 11 12 11 11 11 11 11 12 13 13 15 16 17 17 17 17 17 16 16 17 18 18 18 18 17 16 14 16 17 17 17
14 13 14 14 13 12 13 13 16 17 15 14 19 21 7 14 13 19 6 7 6 6 8 9 11 10 9 12 12 7 4 4 6 7 9 10 12 14 15 16 16 16 16 15 17 17 18 17 18 18 16 16 15 15 15 16 17 19 18 18 18 17 17
16 15 14 13 11 10 12 13 16 18 18 19 20 18 12 17 14 11 10 11 13 10 8 9 11 11 10 8 1 2 4 6 7 9 11 13 15 16 16 16 16 15 16 16 17 17 17 18 19 18 17 17 17 18 18 17 17 17 15 16 17 17 18
13 15 11 10 14 11 12 13 13 17 19 21 21 18 15 13 14 11 6 8 12 8 7 9 9 7 2 2 2 6 8 7 5 7 10 12 13 14 15 14 15 15 16 16 14 13 15 18 19 19 18 18 18 18 17 17 18 16 16 17 17 18 19
9 8 10 18 18 17 11 12 14 16 20 21 18 16 10 9 11 10 7 7 9 7 9 6 5 4 5 8 7 6 7 7 6 7 10 11 12 12 13 13 14 14 15 15 14 16 18 19 19 18 17 16 16 17 17 18 17 16 16 16 18 19 19
6 10 11 15 19 14 11 15 20 18 11 11 11 11 13 16 14 12 16 18 8 13 10 6 7 7 8 5 5 6 7 6 5 7 7 8 9 10 12 13 14 15 17 18 19 20 18 17 18 19 19 17 18 18 18 18 15 15 17 17 17 17 16
8 16 14 13 6 6 18 9 6 10 16 11 10 10 9 8 12 13 14 16 13 11 4 7 8 11 8 5 1 1 2 3 4 5 6 7 7 7 8 8 11 14 13 13 15 18 19 20 21 19 18 19 19 18 18 14 15 16 16 17 17 17 16
6 9 10 7 4 11 5 11 4 13 14 7 11 9 8 10 9 5 1 5 8 9 10 10 9 5 4 3 2 4 3 2 2 4 6 5 5 6 5 5 7 9 14 14 14 13 13 15 14 13 14 14 13 12 12 14 15 17 18 19 19 18 17
4 4 3 3 8 6 13 16 8 17 3 4 9 3 3 3 3 5 6 7 9 6 5 4 6 10 7 4 4 4 5 4 4 4 4 4 4 5 5 5 6 5 7 13 16 16 15 14 14 15 17 16 15 15 15 17 17 17 17 17 17 15 14
4 5 4 9 12 17 13 3 7 9 4 7 5 11 9 3 2 7 8 8 5 4 7 10 8 6 4 5 5 4 7 7 5 4 4 5 6 6 6 5 7 5 3 3 5 6 10 12 14 15 15 14 15 15 14 14 14 15 15 15 16 15 15
7 5 6 4 3 4 4 0 7 5 7 10 11 4 7 2 2 2 4 8 9 10 10 12 10 4 9 5 1 5 9 8 9 7 5 5 5 6 7 6 3 4 5 4 4 3 5 10 15 14 13 13 13 13 14 14 14 14 15 16 17 16 16
3 2 3 3 3 5 1 10 14 16 15 12 9 2 7 3 2 2 3 3 2 11 18 11 6 6 6 3 4 6 8 9 7 9 8 6 6 6 7 8 9 7 3 5 5 4 5 8 10 11 13 14 14 14 14 14 15 15 16 17 16 16 17
7 3 2 4 3 5 6 14 16 21 18 16 1 9 7 1 4 3 3 3 4 3 4 10 5 7 12 8 3 4 6 5 4 7 10 11 12 10 8 8 8 6 3 2 5 8 8 10 5 2 5 12 16 16 14 13 14 15 17 17 16 16 17
7 5 2 3 6 4 7 14 20 22 18 4 10 11 2 1 2 2 2 3 2 4 6 3 8 1 3 3 0 4 6 7 9 9 8 6 5 9 10 9 10 8 6 1 4 4 6 6 4 5 5 5 8 10 12 13 16 19 18 17 16 16 16
6 4 3 6 7 4 9 15 20 17 8 4 5 4 9 2 2 3 2 7 4 7 9 9 9 7 5 4 2 5 7 8 7 8 10 11 13 12 9 10 10 9 8 7 6 6 5 2 4 9 8 8 9 7 8 13 17 18 16 16 16 15 13
3 2 1 4 7 6 13 19 13 11 6 4 7 9 6 6 3 3 4 4 3 7 11 9 10 9 6 5 5 7 8 9 10 10 10 11 11 11 14 15 14 11 9 9 8 6 5 3 1 6 8 12 9 7 9 13 10 5 3 5 7 8 9
6 5 7 6 5 7 13 10 6 7 7 9 9 5 5 7 6 5 2 5 3 4 12 10 9 6 6 5 4 5 7 7 7 7 9 10 9 10 9 7 9 10 9 8 9 8 7 6 6 1 10 9 9 11 13 8 4 5 5 6 6 7 7
3 6 6 2 2 6 7 7 6 8 7 8 10 9 6 6 6 5 2 3 3 4 9 9 9 9 6 5 4 7 5 6 7 8 8 8 8 9 9 10 11 8 9 9 7 8 8 9 7 8 4 6 9 10 8 5 6 7 8 7 8 9 10
1 2 2 3 2 5 6 6 7 7 9 10 10 12 11 10 9 7 4 5 4 3 2 10 6 6 4 6 4 5 4 5 5 4 5 8 7 7 7 9 10 9 9 9 9 9 7 7 8 6 6 7 3 6 5 8 8 9 9 9 9 10 11
4 4 4 3 3 1 4 5 8 7 7 6 8 10 11 10 12 11 9 5 6 6 6 8 8 6 4 7 5 4 4 6 6 6 7 8 8 9 9 8 7 7 7 7 8 10 10 9 9 7 7 5 4 6 6 4 5 11 11 13 12 11 11
5 4 4 2 2 3 4 4 7 9 10 11 10 9 11 10 11 11 11 7 7 5 8 6 8 8 5 7 6 6 5 5 4 5 6 6 6 6 6 6 6 5 6 6 6 6 7 10 10 8 7 7 8 7 4 6 8 5 9 13 14 14 16
3 5 3 1 2 1 4 5 4 4 4 4 6 10 10 11 10 9 8 7 5 7 7 5 7 10 8 6 5 7 6 6 6 6 5 4 4 4 6 6 6 6 6 7 5 6 6 5 6 8 9 8 8 8 7 7 6 7 9 6 7 9 11
7 5 5 5 6 3 2 3 2 2 3 2 5 8 9 8 8 8 5 4 6 7 6 6 7 9 6 6 6 9 8 7 7 7 7 7 7 8 6 4 5 4 5 5 6 6 5 4 5 6 6 7 7 7 7 7 7 7 8 8 6 5 4
6 4 6 5 3 6 5 6 5 2 1 3 7 7 7 4 4 9 6 1 5 7 6 4 7 7 7 5 6 9 8 7 6 6 7 8 8 9 8 8 8 6 5 5 6 6 6 6 5 6 6 6 6 6 6 5 6 6 5 6 7 6 1
3 6 5 5 4 5 5 5 5 2 0 2 5 4 3 4 4 7 4 1 5 5 5 5 4 6 7 6 8 9 8 8 8 8 7 7 6 6 8 8 8 9 8 7 6 6 5 5 4 3 4 4 5 6 5 6 6 5 5 4 3 3 1
1 1 4 3 2 2 2 3 2 2 2 2 2 1 1 1 3 5 2 1 0 5 7 7 5 6 9 8 8 9 8 7 7 6 6 6 7 8 7 8 9 8 8 6 5 5 6 7 7 5 3 4 3 4 4 5 6 7 8 7 4 1 0
Wind_Direction
191 202 180 203 154 208 200 132 208 214 110 188 257 279 222 95 15 254 168 263 292 305 316 247 224 203 211 215 217 215 215 213 202 202 200 202 204 203 200 203 204 204 202 203 202 200 201 201 198 198 198 196 196 192 192 195 198 196 197 199 200 201 202
226 210 184 189 188 149 124 194 215 88 179 196 197 228 264 237 240 256 194 216 266 200 256 293 186 197 226 207 211 214 218 214 191 204 201 202 203 203 203 203 203 201 200 201 202 204 202 199 198 199 201 197 195 193 192 193 194 196 199 199 201 202 202
210 207 188 270 248 188 210 216 150 171 193 214 210 130 231 222 235 269 289 237 238 202 242 182 200 207 215 218 225 224 223 211 201 204 206 206 207 206 205 204 203 204 204 203 203 203 203 203 201 200 199 194 193 195 196 194 195 198 196 197 201 203 202
205 183 158 215 216 256 248 97 189 179 135 211 179 203 162 135 256 261 277 166 246 187 199 188 188 205 213 213 210 215 221 214 205 205 202 202 204 206 204 202 202 203 204 204 203 203 203 202 202 203 198 193 195 196 194 196 199 198 197 200 201 203 203
176 216 178 199 204 206 214 212 206 207 221 245 189 174 199 201 197 204 238 267 248 228 199 173 193 196 208 201 207 212 216 214 210 208 205 203 204 203 203 202 203 204 205 205 204 204 203 203 202 197 189 192 197 193 195 196 194 194 197 201 201 205 201
208 217 181 197 202 206 211 202 211 203 185 142 183 231 162 154 190 220 177 246 269 265 185 187 188 209 201 206 201 213 218 216 209 210 210 207 205 203 201 202 203 204 205 205 203 202 203 201 198 192 196 196 193 192 196 194 194 196 199 200 202 201 200
206 209 210 201 207 204 213 196 217 190 186 124 179 216 239 220 235 114 186 267 261 226 184 186 186 200 210 208 196 210 218 215 212 213 213 211 207 201 201 202 204 205 204 202 200 197 196 196 197 196 193 192 194 195 193 192 193 199 200 201 199 196 198
287 271 268 256 226 207 214 218 202 183 201 193 207 214 184 192 252 216 305 244 266 254 181 206 196 191 205 211 198 211 224 222 221 218 220 212 210 212 207 203 204 207 205 201 199 196 197 199 196 192 194 195 194 193 192 191 197 200 200 200 196 197 198
268 262 317 284 273 181 216 208 209 207 194 200 211 103 102 215 198 182 144 244 209 281 268 235 213 212 204 203 207 200 219 230 215 218 220 217 216 215 208 204 205 205 201 195 196 197 197 197 195 194 193 193 192 193 192 195 200 199 199 196 195 197 197
229 221 215 223 229 234 290 243 213 206 201 203 169 221 149 219 238 168 206 242 241 280 318 283 232 210 223 225 208 206 208 211 219 221 220 215 210 212 211 211 209 204 200 196 194 194 195 195 195 194 193 193 194 192 195 196 196 195 198 194 196 194 194
250 292 304 279 277 169 218 217 209 214 212 205 205 206 198 215 207 207 224 165 238 233 174 256 235 209 211 228 205 200 215 231 232 228 221 213 210 210 209 209 209 206 197 194 193 194 194 193 193 193 192 193 194 194 196 196 195 195 194 192 193 193 195
274 289 279 283 291 274 229 210 219 220 217 214 209 207 222 128 142 244 186 200 146 230 242 230 246 245 233 229 237 207 224 230 221 223 223 221 218 218 216 216 213 204 200 197 193 194 195 194 193 192 192 193 192 193 195 194 193 192 192 193 192 196 195
312 301 289 291 290 276 267 219 209 216 219 216 219 222 189 168 203 229 173 185 172 239 225 222 228 218 218 230 235 232 231 230 225 234 232 222 216 215 210 206 204 205 203 199 196 194 194 191 189 190 190 192 193 196 196 193 191 194 191 189 193 195 196
309 308 306 306 308 294 273 249 219 209 212 220 222 223 202 200 217 225 208 186 199 200 214 217 227 220 225 250 234 292 286 247 215 213 218 220 219 216 210 205 201 202 205 202 199 194 190 188 189 189 189 189 191 191 192 192 196 196 185 191 194 194 199
308 303 306 315 331 332 305 272 241 217 212 219 221 220 209 210 231 228 198 189 223 244 223 218 227 247 311 25 267 236 239 249 232 220 224 223 224 220 213 204 198 197 199 201 198 192 191 190 191 190 189 191 191 192 192 190 194 189 186 192 194 197 204
311 311 344 327 321 318 288 266 252 235 214 215 219 219 202 179 207 218 211 221 228 260 245 244 284 267 253 242 236 243 251 244 228 221 229 230 227 222 213 203 197 196 198 198 191 193 194 194 193 190 190 190 187 191 191 193 193 185 187 192 196 201 205
269 290 318 319 316 317 300 249 230 228 238 227 222 226 206 200 186 195 220 230 202 216 212 188 246 233 237 244 255 247 266 256 212 224 245 265 260 233 215 203 195 196 197 195 194 195 194 193 192 193 189 184 189 192 191 196 183 182 190 194 198 203 201
297 299 315 310 315 264 239 266 222 201 228 224 220 221 220 229 183 212 212 219 214 213 183 173 217 224 225 196 235 232 258 254 224 236 238 239 249 275 272 241 209 202 199 198 199 195 192 192 191 191 186 188 193 192 191 182 177 186 190 196 199 203 198
287 301 314 316 241 244 276 332 205 206 214 199 211 217 228 218 220 252 315 250 231 217 198 197 204 181 139 149 89 18 354 349 275 229 214 226 255 264 260 254 236 207 194 197 195 196 198 192 190 183 189 193 189 187 183 180 186 188 193 196 199 200 196
261 286 237 255 233 250 309 302 360 352 346 203 151 262 256 248 229 180 193 204 218 210 166 139 159 141 162 143 74 41 2 19 6 7 337 292 237 228 223 233 248 238 224 197 189 197 194 185 183 183 189 188 184 189 186 189 192 194 195 198 202 198 195
223 223 240 247 288 306 310 352 8 3 335 317 285 227 244 228 207 171 187 195 194 162 150 153 148 165 152 62 354 5 10 354 2 14 347 355 349 322 291 222 209 200 204 279 268 217 181 184 181 188 190 184 189 188 187 193 191 195 195 200 202 196 196
199 246 275 302 309 249 271 196 304 302 291 282 271 285 275 275 242 209 181 179 166 144 152 151 161 134 81 55 326 327 353 349 350 353 10 2 1 353 355 349 325 209 187 173 147 174 218 199 192 190 181 182 184 184 191 191 191 196 197 203 202 198 198
235 252 236 236 255 255 212 331 331 326 318 309 291 75 255 285 309 3 127 143 176 160 152 167 141 97 106 195 259 306 338 338 358 352 353 358 1 9 13 3 348 332 299 195 161 135 172 215 215 192 181 180 179 189 191 190 191 194 201 206 202 200 203
223 202 236 262 229 272 327 338 335 324 311 299 221 192 245 273 345 334 84 123 124 102 134 134 111 129 143 187 237 309 336 326 347 6 358 356 356 358 360 9 355 320 282 161 156 168 189 211 189 249 224 189 186 190 191 186 190 201 205 206 203 204 205
197 173 255 294 289 278 342 345 331 319 312 285 175 202 235 222 36 344 82 123 173 153 128 145 108 34 133 141 56 345 347 355 358 8 12 0 350 352 359 8 1 352 6 76 184 201 205 175 152 155 154 208 216 204 189 184 197 203 204 202 202 206 205
186 158 179 238 267 281 356 337 330 310 308 203 201 282 296 309 51 21 65 99 87 107 92 104 104 115 79 72 51 47 36 38 23 16 6 2 5 1 3 9 20 12 1 23 45 44 27 343 179 156 160 185 205 201 195 208 210 205 204 202 203 204 203
62 77 83 286 285 258 7 337 333 13 24 322 299 297 320 343 357 27 15 60 63 95 94 82 100 98 80 65 49 40 34 30 27 24 23 25 17 7 1 354 1 9 2 7 15 9 352 6 122 171 169 179 191 193 208 224 224 215 200 201 210 210 201
143 167 182 206 223 301 332 342 336 345 327 309 308 327 333 344 352 328 6 23 39 77 106 109 90 87 88 56 37 42 39 38 32 35 33 27 19 12 6 2 358 2 9 0 356 356 358 358 349 198 170 185 193 189 211 200 180 197 186 180 179 186 194
161 191 201 223 343 323 313 315 307 307 308 349 357 19 19 359 341 328 317 69 59 75 103 92 96 84 63 78 45 58 27 22 22 27 26 32 30 20 13 10 358 5 1 353 353 350 355 354 357 352 333 182 179 207 211 167 191 182 182 175 176 183 188
348 346 97 119 27 334 321 331 316 320 342 16 17 20 17 2 347 351 19 356 12 31 52 106 79 90 122 95 75 71 51 42 23 17 20 25 24 25 24 20 17 9 356 350 349 346 342 358 353 351 352 347 274 230 183 180 179 172 168 175 179 185 181
132 213 177 168 131 286 341 338 334 341 354 8 30 22 33 13 355 348 351 18 31 33 41 67 92 90 89 91 92 94 79 62 43 36 32 20 16 17 15 15 14 23 21 10 357 347 338 348 348 348 345 346 329 334 313 291 198 168 170 172 175 174 177
154 192 140 133 109 80 309 27 11 346 344 355 20 22 31 19 5 360 341 345 32 28 50 42 74 69 48 68 70 68 66 67 60 53 43 27 24 13 15 9 12 26 21 24 20 5 351 340 343 344 348 348 342 339 315 318 314 280 190 180 182 187 183
155 104 128 93 106 133 344 21 36 326 339 357 14 29 31 17 355 344 339 339 26 48 49 36 70 68 44 48 55 63 50 43 42 40 39 43 43 30 18 10 19 23 12 16 22 30 9 351 348 344 346 350 351 349 336 326 317 308 294 267 234 213 200
179 174 179 173 138 181 156 333 21 6 313 64 58 60 47 30 346 315 307 345 21 50 50 59 67 77 68 45 52 58 46 38 30 24 28 27 29 25 16 22 29 30 24 11 19 11 7 359 357 355 352 350 347 352 354 348 346 319 298 288 281 256 239
176 149 155 171 158 131 156 165 250 246 266 94 87 78 83 55 296 280 271 129 57 59 55 53 77 80 76 57 63 61 48 37 28 31 32 30 23 18 10 16 14 17 16 30 27 19 7 358 358 358 354 349 352 351 352 358 354 343 334 311 294 296 300
107 155 149 145 130 164 184 184 209 219 313 37 82 98 120 150 249 263 255 248 118 106 89 70 76 93 83 70 66 65 52 38 35 33 33 36 31 26 21 16 11 4 2 8 11 0 352 351 342 338 345 344 345 344 355 357 1 353 346 337 317 315 316
159 127 145 153 151 185 149 141 195 149 91 74 51 58 131 217 248 252 221 186 190 117 103 92 75 74 83 70 64 64 61 46 38 34 31 31 29 31 24 23 15 7 355 351 1 4 354 349 343 333 339 324 339 349 353 2 10 10 0 348 346 353 316